Location: Siratepeler Tepesi
(39.1042°N, 32.0781°E)
Time: 01:24:12
(UTC+00:00)

Cosmos 1959 Rocket - Pass Details

Date: 11 April 2026
Orbit: 946 x 997 km, 82.9° (Epoch: 11 May)

Event Time Altitude Azimuth Distance (km) Brightness Sun altitude
Exits shadow 18:31:23 40° 161° (SSE) 1,426 5.0 -23.4°
Maximum altitude 18:33:42 67° 93° (E) 1,072 4.4 -23.7°
Drops below altitude 10° 18:39:59 10° 12° (NNE) 2,764 7.1 -24.7°
Sets 18:42:31 0° 10° (N) 3,712 7.9 -25.1°
